| time (UTC) | temp F | wind direction | speed MPH | gust MPH | rain 1hr in | rain 24hr in | rain mn in | humidity % | barometer mb |
| 20260505195304 | 53 | 184 | 17.0 | 14.0 | 0.00 | 0.00 | 0.00 | 49 | |
| 20260505194306 | 52 | 176 | 18.0 | 18.0 | 0.00 | 0.00 | 0.00 | 49 | |
| 20260505193809 | 52 | 180 | 18.0 | 21.0 | 0.00 | 0.00 | 0.00 | 48 | |
| 20260505193311 | 52 | 203 | 15.0 | 16.0 | 0.00 | 0.00 | 0.00 | 49 | |
| 20260505192810 | 52 | 187 | 17.0 | 12.0 | 0.00 | 0.00 | 0.00 | 50 | |
| 20260505192313 | 52 | 200 | 20.0 | 21.0 | 0.00 | 0.00 | 0.00 | 49 | |
| 20260505191815 | 52 | 188 | 17.0 | 19.0 | 0.00 | 0.00 | 0.00 | 47 | |
| 20260505191318 | 52 | 190 | 16.0 | 23.0 | 0.00 | 0.00 | 0.00 | 46 | |
| 20260505190820 | 52 | 172 | 15.0 | 15.0 | 0.00 | 0.00 | 0.00 | 48 | |
| 20260505190322 | 52 | 187 | 18.0 | 17.0 | 0.00 | 0.00 | 0.00 | 48 | |
| 20260505185821 | 53 | 205 | 15.0 | 14.0 | 0.00 | 0.00 | 0.00 | 47 | |
| 20260505185324 | 53 | 201 | 13.0 | 13.0 | 0.00 | 0.00 | 0.00 | 47 | |
| 20260505184826 | 53 | 166 | 16.0 | 14.0 | 0.00 | 0.00 | 0.00 | 47 | |
| 20260505184328 | 53 | 180 | 13.0 | 14.0 | 0.00 | 0.00 | 0.00 | 47 | |
| 20260505183831 | 53 | 190 | 14.0 | 16.0 | 0.00 | 0.00 | 0.00 | 46 | |
| 20260505183333 | 53 | 184 | 11.0 | 11.0 | 0.00 | 0.00 | 0.00 | 46 | |
| 20260505182832 | 53 | 156 | 0.0 | 0.0 | 0.00 | 0.00 | 0.00 | 46 | |
| 20260505182335 | 53 | 156 | 0.0 | 0.0 | 0.00 | 0.00 | 0.00 | 46 | |
| 20260505181837 | 53 | 156 | 0.0 | 0.0 | 0.00 | 0.00 | 0.00 | 45 | |
| 20260505181339 | 53 | 156 | 0.0 | 0.0 | 0.00 | 0.00 | 0.00 | 44 | |
| 20260505180842 | 53 | 156 | 0.0 | 0.0 | 0.00 | 0.00 | 0.00 | 45 | |
| 20260505180344 | 54 | 156 | 0.0 | 0.0 | 0.00 | 0.00 | 0.00 | 45 | |
| 20260505175843 | 54 | 156 | 0.0 | 0.0 | 0.00 | 0.00 | 0.00 | 45 | |
| 20260505175346 | 54 | 156 | 0.0 | 0.0 | 0.00 | 0.00 | 0.00 | 44 | |
| 20260505174848 | 54 | 156 | 0.0 | 0.0 | 0.00 | 0.00 | 0.00 | 45 | |
| 20260505174350 | 54 | 217 | 0.0 | 0.0 | 0.00 | 0.00 | 0.00 | 46 | |
| 20260505173853 | 54 | 217 | 0.0 | 0.0 | 0.00 | 0.00 | 0.00 | 47 | |
| 20260505173355 | 53 | 217 | 0.0 | 0.0 | 0.00 | 0.00 | 0.00 | 47 | |
| 20260505172854 | 53 | 217 | 0.0 | 0.0 | 0.00 | 0.00 | 0.00 | 48 | |
| 20260505172357 | 53 | 217 | 0.0 | 0.0 | 0.00 | 0.00 | 0.00 | 52 | |
| 20260505171859 | 52 | 217 | 0.0 | 0.0 | 0.00 | 0.00 | 0.00 | 51 | |
| 20260505171401 | 52 | 248 | 0.0 | 0.0 | 0.00 | 0.00 | 0.00 | 49 | |
| 20260505170957 | 52 | 248 | 0.0 | 0.0 | 0.00 | 0.00 | 0.00 | 50 | |
| 20260505170904 | 52 | 248 | 0.0 | 0.0 | 0.00 | 0.00 | 0.00 | 50 | |
| 20260505170406 | 52 | 248 | 0.0 | 0.0 | 0.00 | 0.00 | 0.00 | 51 | |
| 20260505165905 | 51 | 248 | 0.0 | 0.0 | 0.00 | 0.00 | 0.00 | 51 | |
| 20260505165408 | 51 | 248 | 0.0 | 0.0 | 0.00 | 0.00 | 0.00 | 53 | |
| 20260505164910 | 51 | 248 | 0.0 | 0.0 | 0.00 | 0.00 | 0.00 | 54 | |
| 20260505164412 | 51 | 248 | 0.0 | 0.0 | 0.00 | 0.00 | 0.00 | 54 | |
| 20260505163417 | 51 | 248 | 0.0 | 0.0 | 0.00 | 0.00 | 0.00 | 57 | |
| 20260505163019 | 50 | 248 | 0.0 | 0.0 | 0.00 | 0.00 | 0.00 | 61 | |
| 20260505162916 | 50 | 248 | 0.0 | 0.0 | 0.00 | 0.00 | 0.00 | 61 | |
| 20260505162418 | 50 | 248 | 0.0 | 0.0 | 0.00 | 0.00 | 0.00 | 62 | |
| 20260505161921 | 50 | 248 | 0.0 | 0.0 | 0.00 | 0.00 | 0.00 | 61 | |
| 20260505161424 | 50 | 248 | 0.0 | 0.0 | 0.00 | 0.00 | 0.00 | 59 | |
| 20260505160926 | 50 | 248 | 0.0 | 0.0 | 0.00 | 0.00 | 0.00 | 60 | |
| 20260505160428 | 50 | 248 | 0.0 | 0.0 | 0.00 | 0.00 | 0.00 | 59 | |
| 20260505152440 | 49 | 186 | 0.0 | 0.0 | 0.00 | 0.00 | 0.00 | 74 | |
| 20260505151943 | 49 | 186 | 0.0 | 0.0 | 0.00 | 0.00 | 0.00 | 77 | |
| 20260505151445 | 49 | 186 | 1.0 | 0.0 | 0.00 | 0.00 | 0.00 | 80 | |
| 20260505150947 | 48 | 212 | 0.0 | 0.0 | 0.00 | 0.00 | 0.00 | 81 | |
| 20260505150450 | 48 | 212 | 0.0 | 0.0 | 0.00 | 0.00 | 0.00 | 84 | |
| 20260505140512 | 45 | 236 | 12.0 | 9.0 | 0.00 | 0.00 | 0.00 | 99 | |
| 20260505125037 | 44 | 231 | 5.0 | 6.0 | 0.00 | 0.00 | 0.00 | 98 | |
| 20260505124610 | 44 | 222 | 7.0 | 6.0 | 0.00 | 0.00 | 0.00 | 99 | |
| 20260505124539 | 44 | 222 | 7.0 | 6.0 | 0.00 | 0.00 | 0.00 | 99 | |
| 20260505124042 | 44 | 193 | 7.0 | 7.0 | 0.00 | 0.00 | 0.00 | 99 | |
| 20260505123655 | 44 | 201 | 10.0 | 10.0 | 0.00 | 0.00 | 0.00 | 99 | |
| 20260505123544 | 44 | 201 | 10.0 | 10.0 | 0.00 | 0.00 | 0.00 | 99 | |
| 20260505123149 | 44 | 194 | 8.0 | 11.0 | 0.00 | 0.00 | 0.00 | 100 | |
| 20260505123043 | 44 | 194 | 8.0 | 11.0 | 0.00 | 0.00 | 0.00 | 100 | |
| 20260505122637 | 44 | 228 | 10.0 | 9.0 | 0.00 | 0.00 | 0.00 | 100 | |
| 20260505122545 | 44 | 228 | 10.0 | 9.0 | 0.00 | 0.00 | 0.00 | 100 | |
| 20260505122048 | 44 | 191 | 9.0 | 8.0 | 0.00 | 0.00 | 0.00 | 100 | |
| 20260505121550 | 44 | 211 | 7.0 | 11.0 | 0.00 | 0.00 | 0.00 | 100 | |
| 20260505120555 | 44 | 173 | 9.0 | 8.0 | 0.00 | 0.00 | 0.00 | 100 | |
| 20260505120054 | 44 | 194 | 8.0 | 5.0 | 0.00 | 0.00 | 0.00 | 100 | |
| 20260505115558 | 44 | 184 | 0.0 | 0.0 | 0.00 | 0.00 | 0.00 | 100 | |
| 20260505115556 | 44 | 184 | 0.0 | 0.0 | 0.00 | 0.00 | 0.00 | 100 | |
| 20260505114601 | 44 | 205 | 4.0 | 7.0 | 0.00 | 0.00 | 0.00 | 100 | |
| 20260505114103 | 44 | 172 | 3.0 | 3.0 | 0.00 | 0.00 | 0.00 | 100 | |
| 20260505113606 | 44 | 201 | 4.0 | 5.0 | 0.00 | 0.00 | 0.00 | 100 | |
| 20260505113105 | 44 | 180 | 8.0 | 5.0 | 0.00 | 0.00 | 0.00 | 100 | |
| 20260505112644 | 44 | 191 | 8.0 | 3.0 | 0.00 | 0.00 | 0.00 | 100 | |
| 20260505112607 | 44 | 191 | 8.0 | 3.0 | 0.00 | 0.00 | 0.00 | 100 | |
| 20260505112109 | 43 | 204 | 6.0 | 8.0 | 0.00 | 0.00 | 0.00 | 100 | |
| 20260505111612 | 43 | 236 | 11.0 | 8.0 | 0.00 | 0.00 | 0.00 | 100 | |
| 20260505111114 | 43 | 217 | 11.0 | 9.0 | 0.00 | 0.00 | 0.00 | 100 | |
| 20260505110616 | 43 | 222 | 7.0 | 6.0 | 0.00 | 0.00 | 0.00 | 100 | |
| 20260505110116 | 43 | 219 | 10.0 | 9.0 | 0.00 | 0.00 | 0.00 | 100 | |
| 20260505102131 | 43 | 215 | 8.0 | 8.0 | 0.00 | 0.00 | 0.00 | 99 | |
| 20260505101633 | 43 | 200 | 10.0 | 11.0 | 0.00 | 0.00 | 0.00 | 99 | |
| 20260505101136 | 43 | 197 | 9.0 | 6.0 | 0.00 | 0.00 | 0.00 | 99 | |
| 20260505100638 | 43 | 215 | 10.0 | 9.0 | 0.00 | 0.00 | 0.00 | 99 | |
| 20260505100137 | 43 | 211 | 12.0 | 12.0 | 0.00 | 0.00 | 0.00 | 99 | |
| 20260505095640 | 43 | 219 | 11.0 | 11.0 | 0.00 | 0.00 | 0.00 | 99 | |
| 20260505095143 | 43 | 207 | 9.0 | 9.0 | 0.00 | 0.00 | 0.00 | 99 | |
| 20260505094644 | 43 | 229 | 9.0 | 7.0 | 0.00 | 0.00 | 0.00 | 98 | |
| 20260505094147 | 43 | 194 | 8.0 | 8.0 | 0.00 | 0.00 | 0.00 | 98 | |
| 20260505093649 | 44 | 200 | 6.0 | 7.0 | 0.00 | 0.00 | 0.00 | 98 | |
| 20260505093148 | 43 | 210 | 8.0 | 14.0 | 0.00 | 0.00 | 0.00 | 98 | |
| 20260505092650 | 43 | 224 | 10.0 | 14.0 | 0.00 | 0.00 | 0.00 | 98 | |
| 20260505092153 | 43 | 198 | 10.0 | 11.0 | 0.00 | 0.00 | 0.00 | 98 | |
| 20260505091655 | 43 | 218 | 13.0 | 12.0 | 0.00 | 0.00 | 0.00 | 97 | |
| 20260505091157 | 44 | 221 | 11.0 | 9.0 | 0.00 | 0.00 | 0.00 | 97 | |
| 20260505090700 | 44 | 215 | 10.0 | 11.0 | 0.00 | 0.00 | 0.00 | 97 | |
| 20260505090159 | 44 | 197 | 11.0 | 10.0 | 0.00 | 0.00 | 0.00 | 97 | |
| 20260505085701 | 44 | 208 | 12.0 | 8.0 | 0.00 | 0.00 | 0.00 | 96 | |
| 20260505085204 | 44 | 224 | 10.0 | 10.0 | 0.00 | 0.00 | 0.00 | 96 | |
| 20260505084706 | 44 | 187 | 12.0 | 10.0 | 0.00 | 0.00 | 0.00 | 96 | |
| 20260505084208 | 44 | 183 | 12.0 | 14.0 | 0.00 | 0.00 | 0.00 | 95 | |
| 20260505083711 | 44 | 201 | 10.0 | 9.0 | 0.00 | 0.00 | 0.00 | 95 | |
| 20260505083210 | 44 | 217 | 10.0 | 11.0 | 0.00 | 0.00 | 0.00 | 95 | |
| 20260505082713 | 44 | 205 | 10.0 | 13.0 | 0.00 | 0.00 | 0.00 | 95 | |
| 20260505082214 | 44 | 201 | 11.0 | 10.0 | 0.00 | 0.00 | 0.00 | 94 | |
| 20260505081717 | 44 | 215 | 12.0 | 11.0 | 0.00 | 0.00 | 0.00 | 94 | |
| 20260505081219 | 44 | 201 | 13.0 | 11.0 | 0.00 | 0.00 | 0.00 | 94 | |
| 20260505080721 | 44 | 236 | 10.0 | 9.0 | 0.00 | 0.00 | 0.00 | 93 | |
| 20260505080221 | 44 | 187 | 12.0 | 10.0 | 0.00 | 0.00 | 0.00 | 93 | |
| 20260505075723 | 44 | 197 | 13.0 | 14.0 | 0.00 | 0.00 | 0.00 | 93 | |
| 20260505075225 | 44 | 204 | 12.0 | 14.0 | 0.00 | 0.00 | 0.00 | 92 | |
| 20260505074728 | 44 | 184 | 11.0 | 11.0 | 0.00 | 0.00 | 0.00 | 91 | |
| 20260505074230 | 44 | 194 | 11.0 | 11.0 | 0.00 | 0.00 | 0.00 | 91 | |
| 20260505073732 | 44 | 188 | 9.0 | 8.0 | 0.00 | 0.00 | 0.00 | 91 | |
| 20260505073231 | 44 | 195 | 10.0 | 10.0 | 0.00 | 0.00 | 0.00 | 91 | |
| 20260505072735 | 44 | 183 | 10.0 | 12.0 | 0.00 | 0.00 | 0.00 | 90 | |
| 20260505072236 | 44 | 190 | 9.0 | 9.0 | 0.00 | 0.00 | 0.00 | 89 | |
| 20260505071738 | 44 | 204 | 10.0 | 10.0 | 0.00 | 0.00 | 0.00 | 88 | |
| 20260505071242 | 44 | 198 | 11.0 | 10.0 | 0.00 | 0.00 | 0.00 | 87 | |
| 20260505070242 | 44 | 193 | 10.0 | 13.0 | 0.00 | 0.00 | 0.00 | 86 | |
| 20260505065247 | 44 | 200 | 9.0 | 10.0 | 0.00 | 0.00 | 0.00 | 85 | |
| 20260505064750 | 44 | 184 | 10.0 | 9.0 | 0.00 | 0.00 | 0.00 | 85 | |
| 20260505064252 | 44 | 201 | 10.0 | 10.0 | 0.00 | 0.00 | 0.00 | 85 | |
| 20260505063755 | 44 | 193 | 9.0 | 10.0 | 0.00 | 0.00 | 0.00 | 85 | |
| 20260505063253 | 44 | 200 | 12.0 | 12.0 | 0.00 | 0.00 | 0.00 | 85 | |
| 20260505062758 | 44 | 211 | 9.0 | 5.0 | 0.00 | 0.00 | 0.00 | 85 | |
| 20260505062755 | 44 | 211 | 9.0 | 5.0 | 0.00 | 0.00 | 0.00 | 85 | |
| 20260505062258 | 44 | 193 | 12.0 | 12.0 | 0.00 | 0.00 | 0.00 | 86 | |
| 20260505061800 | 44 | 200 | 10.0 | 9.0 | 0.00 | 0.00 | 0.00 | 86 | |
| 20260505061302 | 44 | 194 | 10.0 | 12.0 | 0.00 | 0.00 | 0.00 | 86 | |
| 20260505060805 | 44 | 191 | 14.0 | 10.0 | 0.00 | 0.00 | 0.00 | 85 | |
| 20260505060304 | 44 | 173 | 11.0 | 11.0 | 0.00 | 0.00 | 0.00 | 84 | |
| 20260505055806 | 44 | 194 | 10.0 | 13.0 | 0.00 | 0.00 | 0.00 | 84 | |
| 20260505055309 | 44 | 203 | 10.0 | 11.0 | 0.00 | 0.00 | 0.00 | 83 | |
| 20260505054811 | 44 | 186 | 8.0 | 9.0 | 0.00 | 0.00 | 0.00 | 83 | |
| 20260505053816 | 44 | 197 | 9.0 | 12.0 | 0.00 | 0.00 | 0.00 | 81 | |
| 20260505053315 | 45 | 186 | 10.0 | 10.0 | 0.00 | 0.00 | 0.00 | 80 | |
| 20260505052817 | 45 | 184 | 11.0 | 9.0 | 0.00 | 0.00 | 0.00 | 79 | |
| 20260505052319 | 45 | 190 | 14.0 | 13.0 | 0.00 | 0.00 | 0.00 | 77 | |
| 20260505051822 | 45 | 190 | 11.0 | 14.0 | 0.00 | 0.00 | 0.00 | 76 | |
| 20260505051327 | 45 | 194 | 11.0 | 10.0 | 0.00 | 0.00 | 0.00 | 74 | |
| 20260505050826 | 45 | 238 | 8.0 | 7.0 | 0.00 | 0.00 | 0.00 | 74 | |
| 20260505050326 | 45 | 200 | 11.0 | 10.0 | 0.00 | 0.00 | 0.00 | 74 | |
| 20260505041346 | 45 | 193 | 9.0 | 10.0 | 0.00 | 0.00 | 0.00 | 74 | |
| 20260505040848 | 46 | 198 | 12.0 | 9.0 | 0.00 | 0.00 | 0.00 | 74 | |
| 20260505040350 | 46 | 201 | 11.0 | 15.0 | 0.00 | 0.00 | 0.00 | 74 | |
| 20260505035850 | 46 | 190 | 8.0 | 9.0 | 0.00 | 0.00 | 0.00 | 74 | |
| 20260505035352 | 46 | 193 | 10.0 | 12.0 | 0.00 | 0.00 | 0.00 | 74 | |
| 20260505034855 | 46 | 187 | 14.0 | 14.0 | 0.00 | 0.00 | 0.00 | 75 | |
| 20260505034357 | 46 | 195 | 15.0 | 15.0 | 0.00 | 0.00 | 0.00 | 76 | |
| 20260505033859 | 46 | 191 | 12.0 | 11.0 | 0.00 | 0.00 | 0.00 | 76 | |
| 20260505033358 | 46 | 184 | 14.0 | 16.0 | 0.00 | 0.00 | 0.00 | 77 | |
| 20260505032901 | 46 | 198 | 12.0 | 13.0 | 0.00 | 0.00 | 0.00 | 77 | |
| 20260505032403 | 46 | 187 | 13.0 | 11.0 | 0.00 | 0.00 | 0.00 | 78 | |
| 20260505031905 | 46 | 169 | 15.0 | 12.0 | 0.00 | 0.00 | 0.00 | 79 | |
| 20260505031408 | 46 | 186 | 14.0 | 19.0 | 0.00 | 0.00 | 0.00 | 78 | |
| 20260505030910 | 47 | 177 | 15.0 | 18.0 | 0.00 | 0.00 | 0.00 | 78 | |
| 20260505030409 | 47 | 187 | 16.0 | 12.0 | 0.00 | 0.00 | 0.00 | 77 | |
| 20260505025911 | 47 | 172 | 13.0 | 11.0 | 0.00 | 0.00 | 0.00 | 76 | |
| 20260505025414 | 47 | 188 | 13.0 | 12.0 | 0.00 | 0.00 | 0.00 | 77 | |
| 20260505024917 | 47 | 183 | 14.0 | 13.0 | 0.00 | 0.00 | 0.00 | 78 | |
| 20260505024418 | 47 | 191 | 16.0 | 13.0 | 0.00 | 0.00 | 0.00 | 78 | |
| 20260505023921 | 47 | 158 | 17.0 | 15.0 | 0.00 | 0.00 | 0.00 | 77 | |
| 20260505023422 | 47 | 188 | 21.0 | 23.0 | 0.00 | 0.00 | 0.00 | 76 | |
| 20260505022922 | 47 | 186 | 22.0 | 22.0 | 0.00 | 0.00 | 0.00 | 75 | |
| 20260505022425 | 48 | 167 | 17.0 | 16.0 | 0.00 | 0.00 | 0.00 | 73 | |
| 20260505021927 | 48 | 191 | 17.0 | 22.0 | 0.00 | 0.00 | 0.00 | 71 | |
| 20260505021429 | 48 | 193 | 20.0 | 24.0 | 0.00 | 0.00 | 0.00 | 70 | |
| 20260505020932 | 49 | 187 | 15.0 | 19.0 | 0.00 | 0.00 | 0.00 | 67 | |
| 20260505020431 | 49 | 194 | 18.0 | 22.0 | 0.00 | 0.00 | 0.00 | 65 | |
| 20260505015933 | 49 | 183 | 17.0 | 17.0 | 0.00 | 0.00 | 0.00 | 64 | |
| 20260505015436 | 50 | 186 | 16.0 | 12.0 | 0.00 | 0.00 | 0.00 | 62 | |
| 20260505014938 | 50 | 200 | 15.0 | 21.0 | 0.00 | 0.00 | 0.00 | 61 | |
| 20260505014440 | 50 | 172 | 16.0 | 11.0 | 0.00 | 0.00 | 0.00 | 60 | |
| 20260505013942 | 50 | 188 | 18.0 | 17.0 | 0.00 | 0.00 | 0.00 | 59 | |
| 20260505013442 | 50 | 195 | 19.0 | 21.0 | 0.00 | 0.00 | 0.00 | 57 | |
| 20260505012944 | 51 | 188 | 15.0 | 19.0 | 0.00 | 0.00 | 0.00 | 56 | |
| 20260505012446 | 51 | 207 | 15.0 | 16.0 | 0.00 | 0.00 | 0.00 | 56 | |
| 20260505011949 | 51 | 203 | 16.0 | 17.0 | 0.00 | 0.00 | 0.00 | 56 | |
| 20260505011451 | 51 | 200 | 14.0 | 20.0 | 0.00 | 0.00 | 0.00 | 56 | |
| 20260505010953 | 51 | 187 | 21.0 | 21.0 | 0.00 | 0.00 | 0.00 | 56 | |
| 20260505010452 | 51 | 187 | 20.0 | 16.0 | 0.00 | 0.00 | 0.00 | 56 | |
| 20260505005000 | 52 | 193 | 24.0 | 24.0 | 0.00 | 0.00 | 0.00 | 53 | |
| 20260505004502 | 52 | 186 | 20.0 | 20.0 | 0.00 | 0.00 | 0.00 | 52 | |
| 20260505004004 | 52 | 201 | 20.0 | 20.0 | 0.00 | 0.00 | 0.00 | 50 | |
| 20260505003503 | 52 | 177 | 16.0 | 13.0 | 0.00 | 0.00 | 0.00 | 52 | |
| 20260505003006 | 52 | 197 | 22.0 | 27.0 | 0.00 | 0.00 | 0.00 | 50 | |
| 20260505002559 | 53 | 184 | 22.0 | 24.0 | 0.00 | 0.00 | 0.00 | 49 | |
| 20260505002508 | 53 | 184 | 22.0 | 24.0 | 0.00 | 0.00 | 0.00 | 49 | |
| 20260505002011 | 53 | 201 | 19.0 | 20.0 | 0.00 | 0.00 | 0.00 | 47 | |
| 20260505001513 | 53 | 183 | 17.0 | 23.0 | 0.00 | 0.00 | 0.00 | 46 | |
| 20260505001015 | 53 | 194 | 22.0 | 14.0 | 0.00 | 0.00 | 0.00 | 46 | |
| 20260505000514 | 53 | 211 | 22.0 | 14.0 | 0.00 | 0.00 | 0.00 | 45 | |
| 20260505000016 | 54 | 184 | 18.0 | 16.0 | 0.00 | 0.00 | 0.00 | 44 | |
| 20260504235519 | 54 | 191 | 17.0 | 15.0 | 0.00 | 0.00 | 0.00 | 44 | |
| 20260504235021 | 54 | 193 | 15.0 | 14.0 | 0.00 | 0.00 | 0.00 | 42 | |
| 20260504234523 | 55 | 188 | 21.0 | 21.0 | 0.00 | 0.00 | 0.00 | 40 | |
| 20260504234027 | 55 | 191 | 18.0 | 17.0 | 0.00 | 0.00 | 0.00 | 38 | |
| 20260504233526 | 55 | 218 | 17.0 | 10.0 | 0.00 | 0.00 | 0.00 | 38 | |
| 20260504233027 | 55 | 200 | 15.0 | 11.0 | 0.00 | 0.00 | 0.00 | 38 | |
| 20260504232032 | 55 | 194 | 15.0 | 20.0 | 0.00 | 0.00 | 0.00 | 38 | |
| 20260504231712 | 55 | 181 | 18.0 | 12.0 | 0.00 | 0.00 | 0.00 | 38 | |
| 20260504231535 | 55 | 181 | 18.0 | 12.0 | 0.00 | 0.00 | 0.00 | 38 | |
| 20260504231037 | 55 | 194 | 18.0 | 14.0 | 0.00 | 0.00 | 0.00 | 38 | |
| 20260504230536 | 55 | 183 | 16.0 | 10.0 | 0.00 | 0.00 | 0.00 | 38 | |
| 20260504230038 | 55 | 194 | 19.0 | 14.0 | 0.00 | 0.00 | 0.00 | 38 | |
| 20260504225541 | 55 | 187 | 21.0 | 19.0 | 0.00 | 0.00 | 0.00 | 39 | |
| 20260504225043 | 55 | 191 | 24.0 | 25.0 | 0.00 | 0.00 | 0.00 | 39 | |
| 20260504224545 | 54 | 180 | 23.0 | 20.0 | 0.00 | 0.00 | 0.00 | 40 | |
| 20260504224048 | 54 | 201 | 19.0 | 28.0 | 0.00 | 0.00 | 0.00 | 41 | |
| 20260504223648 | 54 | 176 | 22.0 | 16.0 | 0.00 | 0.00 | 0.00 | 40 | |
| 20260504223547 | 54 | 176 | 22.0 | 16.0 | 0.00 | 0.00 | 0.00 | 40 | |
| 20260504223049 | 54 | 198 | 19.0 | 23.0 | 0.00 | 0.00 | 0.00 | 41 | |
| 20260504222654 | 54 | 167 | 22.0 | 23.0 | 0.00 | 0.00 | 0.00 | 40 | |
| 20260504222551 | 54 | 167 | 22.0 | 23.0 | 0.00 | 0.00 | 0.00 | 40 | |
| 20260504222139 | 54 | 190 | 21.0 | 21.0 | 0.00 | 0.00 | 0.00 | 39 | |
| 20260504222054 | 54 | 190 | 21.0 | 21.0 | 0.00 | 0.00 | 0.00 | 39 | |
| 20260504221556 | 55 | 204 | 25.0 | 21.0 | 0.00 | 0.00 | 0.00 | 37 | |
| 20260504221058 | 55 | 190 | 10.0 | 15.0 | 0.00 | 0.00 | 0.00 | 36 | |
| 20260504220558 | 55 | 187 | 24.0 | 21.0 | 0.00 | 0.00 | 0.00 | 35 | |
| 20260504220100 | 55 | 205 | 26.0 | 22.0 | 0.00 | 0.00 | 0.00 | 36 | |
| 20260504215602 | 55 | 159 | 22.0 | 20.0 | 0.00 | 0.00 | 0.00 | 37 | |
| 20260504214607 | 55 | 197 | 15.0 | 13.0 | 0.00 | 0.00 | 0.00 | 37 | |
| 20260504213111 | 55 | 203 | 22.0 | 22.0 | 0.00 | 0.00 | 0.00 | 34 | |
| 20260504212613 | 56 | 197 | 11.0 | 18.0 | 0.00 | 0.00 | 0.00 | 34 | |
| 20260504212115 | 55 | 188 | 18.0 | 15.0 | 0.00 | 0.00 | 0.00 | 33 | |
| 20260504211618 | 54 | 212 | 22.0 | 14.0 | 0.00 | 0.00 | 0.00 | 34 | |
| 20260504211120 | 54 | 198 | 22.0 | 20.0 | 0.00 | 0.00 | 0.00 | 37 | |
| 20260504210619 | 54 | 174 | 24.0 | 26.0 | 0.00 | 0.00 | 0.00 | 35 | |
| 20260504210122 | 54 | 173 | 17.0 | 17.0 | 0.00 | 0.00 | 0.00 | 37 | |
| 20260504205624 | 54 | 173 | 19.0 | 19.0 | 0.00 | 0.00 | 0.00 | 38 | |
| 20260504205212 | 54 | 159 | 22.0 | 18.0 | 0.00 | 0.00 | 0.00 | 38 | |
| 20260504205127 | 54 | 159 | 22.0 | 18.0 | 0.00 | 0.00 | 0.00 | 38 | |
| 20260504204629 | 54 | 174 | 24.0 | 23.0 | 0.00 | 0.00 | 0.00 | 37 | |
| 20260504204131 | 54 | 173 | 20.0 | 20.0 | 0.00 | 0.00 | 0.00 | 38 | |
| 20260504203630 | 54 | 167 | 21.0 | 30.0 | 0.00 | 0.00 | 0.00 | 39 | |
| 20260504203133 | 53 | 166 | 17.0 | 12.0 | 0.00 | 0.00 | 0.00 | 39 | |
| 20260504202739 | 53 | 176 | 19.0 | 26.0 | 0.00 | 0.00 | 0.00 | 41 | |
| 20260504202635 | 53 | 176 | 19.0 | 26.0 | 0.00 | 0.00 | 0.00 | 41 | |
| 20260504202137 | 53 | 193 | 20.0 | 9.0 | 0.00 | 0.00 | 0.00 | 41 | |
| 20260504201640 | 53 | 198 | 18.0 | 21.0 | 0.00 | 0.00 | 0.00 | 42 | |
| 20260504201219 | 53 | 203 | 21.0 | 19.0 | 0.00 | 0.00 | 0.00 | 42 | |
| 20260504201142 | 53 | 203 | 21.0 | 19.0 | 0.00 | 0.00 | 0.00 | 42 | |
| 20260504200642 | 53 | 160 | 21.0 | 25.0 | 0.00 | 0.00 | 0.00 | 42 |